Location: Ostrava
(49.8330°N, 18.2830°E)
Time: 21:12:15
(UTC+02:00)

Transit 2A - All Passes

Search period start: 27 June 2017 00:00
Search period end: 07 July 2017 00:00
Orbit: 599 x 960 km, 66.7° (Epoch: 26 June)

Date Brightness Start Highest point End Pass type
(mag) Time Alt. Az. Time Alt. Az. Time Alt. Az.
27 Jun - 07:43:05 10° S 07:47:00 33° ESE 07:51:07 10° NE daylight
27 Jun - 09:25:57 10° WSW 09:30:05 39° NW 09:34:31 10° NNE daylight
27 Jun - 11:12:17 10° NW 11:14:39 14° NNW 11:17:09 10° NNE daylight
27 Jun - 12:58:19 10° NNW 13:00:05 12° N 13:01:54 10° NNE daylight
27 Jun - 14:40:57 10° NNW 14:45:06 24° NE 14:49:34 10° E daylight
27 Jun - 16:23:40 10° NW 16:28:54 89° NE 16:34:43 10° SE daylight
27 Jun - 18:07:57 10° WNW 18:11:35 18° WSW 18:15:26 10° SSW daylight
28 Jun - 07:09:43 10° SSE 07:13:10 23° ESE 07:16:45 10° ENE daylight
28 Jun - 08:51:39 10° SW 08:55:57 53° NW 09:00:34 10° NNE daylight
28 Jun - 10:37:26 10° WNW 10:40:16 16° NNW 10:43:14 10° NNE daylight
28 Jun - 12:24:08 10° NNW 12:25:36 11° N 12:27:07 10° NNE daylight
28 Jun - 14:07:02 10° NNW 14:10:48 20° NNE 14:14:48 10° ENE daylight
28 Jun - 15:49:39 10° NNW 15:54:51 68° NE 16:00:36 10° SE daylight
28 Jun - 17:33:23 10° WNW 17:37:45 25° WSW 17:42:25 10° SSW daylight
29 Jun - 06:36:43 10° SE 06:39:23 16° ESE 06:42:07 10° ENE daylight
29 Jun - 08:17:29 10° SW 08:21:52 74° NW 08:26:34 10° NE daylight
29 Jun - 10:02:40 10° WNW 10:05:55 19° NNW 10:09:20 10° NNE daylight
29 Jun - 11:49:44 10° NNW 11:51:08 11° N 11:52:35 10° NNE daylight
29 Jun - 13:33:08 10° NNW 13:36:27 17° NNE 13:39:59 10° ENE daylight
29 Jun - 15:15:41 10° NNW 15:20:46 52° NE 15:26:21 10° ESE daylight
29 Jun - 16:59:04 10° NW 17:03:52 35° WSW 17:09:05 10° S daylight
30 Jun - 06:04:46 10° ESE 06:05:39 11° ESE 06:06:31 10° E daylight
30 Jun - 07:43:28 10° SSW 07:47:50 79° SE 07:52:31 10° NE daylight
30 Jun - 09:28:01 10° W 09:31:36 23° NNW 09:35:25 10° NNE daylight
30 Jun - 11:15:04 10° NNW 11:16:40 11° N 11:18:19 10° NNE daylight
30 Jun - 12:59:12 10° NNW 13:02:05 15° NNE 13:05:05 10° NE daylight
30 Jun - 14:41:44 10° NNW 14:46:38 40° NE 14:51:58 10° ESE daylight
30 Jun - 16:24:51 10° NW 16:29:57 47° WSW 16:35:32 10° S daylight
01 Jul - 07:09:37 10° SSW 07:13:52 54° ESE 07:18:25 10° NE daylight
01 Jul - 08:53:27 10° W 08:57:20 28° NW 09:01:30 10° NNE daylight
01 Jul - 10:40:15 10° NW 10:42:13 12° NNW 10:44:13 10° NNE daylight
01 Jul - 12:25:15 10° NNW 12:27:39 13° NNE 12:30:10 10° NE daylight
01 Jul - 14:07:48 10° NNW 14:12:26 32° NE 14:17:27 10° ESE daylight
01 Jul - 15:50:43 10° NW 15:55:59 64° WSW 16:01:46 10° SSE daylight
01 Jul - 17:36:21 10° W 17:38:22 12° WSW 17:40:27 10° SW daylight
02 Jul - 06:35:57 10° S 06:39:58 37° ESE 06:44:13 10° NE daylight
02 Jul - 08:19:00 10° WSW 08:23:07 36° NW 08:27:34 10° NNE daylight
02 Jul - 10:05:24 10° NW 10:07:47 14° NNW 10:10:15 10° NNE daylight
02 Jul - 11:51:13 10° NNW 11:53:13 12° N 11:55:17 10° NE daylight
02 Jul - 13:33:53 10° NNW 13:38:12 26° NE 13:42:50 10° E daylight
02 Jul - 15:16:39 10° NW 15:21:59 86° SW 15:27:50 10° SSE daylight
02 Jul - 17:01:07 10° WNW 17:04:35 17° WSW 17:08:15 10° SSW daylight
03 Jul - 06:02:31 10° SSE 06:06:07 25° ESE 06:09:54 10° ENE daylight
03 Jul - 07:44:40 10° WSW 07:48:58 49° NW 07:53:36 10° NNE daylight
03 Jul - 09:30:35 10° WNW 09:33:22 16° NNW 09:36:18 10° NNE daylight
03 Jul - 11:17:04 10° NNW 11:18:45 12° N 11:20:29 10° NNE daylight
03 Jul - 12:59:58 10° NNW 13:03:54 21° NNE 13:08:07 10° E daylight
03 Jul - 14:42:38 10° NW 14:47:55 73° NE 14:53:46 10° SE daylight
03 Jul - 16:26:29 10° WNW 16:30:46 24° WSW 16:35:21 10° SSW daylight
04 Jul - 05:29:24 10° SSE 05:32:19 18° ESE 05:35:21 10° ENE daylight
04 Jul - 07:10:29 10° SW 07:14:52 68° NW 07:19:37 10° NNE daylight
04 Jul - 08:55:48 10° WNW 08:59:00 18° NNW 09:02:23 10° NNE daylight
04 Jul - 10:42:42 10° NNW 10:44:16 11° N 10:45:53 10° NNE daylight
04 Jul - 12:26:03 10° NNW 12:29:35 18° NNE 12:33:19 10° ENE daylight
04 Jul - 14:08:39 10° NNW 14:13:50 55° NE 14:19:32 10° SE daylight
04 Jul - 15:52:06 10° NW 15:56:54 32° WSW 16:02:04 10° S daylight
05 Jul - 04:56:57 10° SE 04:58:35 12° ESE 05:00:14 10° E daylight
05 Jul - 06:36:26 10° SSW 06:40:50 85° ESE 06:45:34 10° NE daylight
05 Jul - 08:21:06 10° W 08:24:41 22° NNW 08:28:28 10° NNE daylight
05 Jul - 10:08:07 10° NNW 10:09:48 12° N 10:11:32 10° NNE daylight
05 Jul - 11:52:07 10° NNW 11:55:12 16° NNE 11:58:26 10° ENE daylight
05 Jul - 13:34:42 10° NNW 13:39:42 43° NE 13:45:11 10° ESE daylight
05 Jul - 15:17:52 10° NW 15:22:58 44° WSW 15:28:34 10° S daylight
06 Jul - 06:02:32 10° SSW 06:06:51 59° ESE 06:11:29 10° NE daylight
06 Jul - 07:46:32 10° W 07:50:24 27° NW 07:54:33 10° NNE daylight
06 Jul - 09:33:21 10° NW 09:35:21 12° N 09:37:23 10° NNE daylight
06 Jul - 11:18:09 10° NNW 11:20:47 14° NNE 11:23:32 10° NE daylight
06 Jul - 13:00:46 10° NNW 13:05:31 34° NE 13:10:42 10° ESE daylight
06 Jul - 14:43:44 10° NW 14:49:01 60° WSW 14:54:50 10° SSE daylight
06 Jul - 16:29:49 10° W 16:31:21 11° WSW 16:32:55 10° WSW daylight
